{"data":{"norad_id":61514,"intl_designator":"2024-183F","name":"STARLINK-31837","alt_names":[],"object_type":"PAYLOAD","status":"ACTIVE","operator":null,"country":"US","launch_date":"2024-10-15","launch_site_code":"AFETR","launch_vehicle":null,"mission":null,"orbit_class":"UNKNOWN","rcs_meters":null,"size_class":null,"mass_kg":null,"dimensions":null,"purposes":["comms"],"wikipedia_slug":null,"has_3d_model":false,"image_url":null,"decayed_at":null,"tle_current":{"epoch":"2026-05-25T01:10:51.350016Z","epoch_age_seconds":74066,"freshness":"FRESH","line1":"1 61514U 24183F   26145.04920544  .00000607  00000+0  32625-4 0  9995","line2":"2 61514  53.1586 147.7418 0001064  74.0072 286.1046 15.30194073 91347","mean_motion":15.30194073,"eccentricity":0.0001064,"inclination_deg":53.1586,"raan_deg":147.7418,"arg_perigee_deg":74.0072,"mean_anomaly_deg":286.1046,"bstar":3.2625e-5,"rev_number":9134,"period_min":94.105710210786,"perigee_km":474.50356788695,"apogee_km":475.96196497324,"semimajor_km":6853.3697664301,"source":"CELESTRAK","updated_at":"2026-05-25T13:38:19.369320Z"}}}